Theta_e
303 302 302 301 301 302 303 310 315 312 309 311 311 311 311 309 310 308 309 309 309 312 313 315 317 321 323 323 322 326 329 328 331 331 332 330 330 329 331 333 335 332 334 333
302 302 301 301 301 301 304 310 312 312 310 311 311 310 310 308 309 310 309 309 308 309 310 313 317 318 318 318 320 322 324 330 332 332 334 332 331 330 330 331 330 336 334 332
302 302 302 301 301 300 304 311 313 311 309 310 310 310 309 308 307 309 308 310 309 309 310 311 314 314 316 316 319 319 321 328 332 335 335 335 333 330 331 330 334 332 333 334
302 302 301 301 301 300 306 309 310 309 310 310 310 310 309 309 310 309 307 308 310 311 309 310 312 313 314 316 319 321 325 330 331 332 333 334 331 330 330 332 334 334 333 334
302 302 301 301 300 300 307 308 307 305 306 308 309 310 310 310 309 308 308 308 309 310 310 310 310 311 312 316 316 317 321 327 330 333 333 333 334 331 331 331 330 332 333 333
301 301 300 300 300 303 306 306 305 304 305 308 309 309 309 309 309 308 307 308 308 308 308 308 308 308 309 312 314 315 319 324 328 332 332 334 335 334 332 332 332 331 334 336
299 300 301 301 302 304 306 305 304 303 306 308 309 309 308 309 309 309 307 307 307 307 308 307 307 309 310 311 313 314 316 320 325 329 332 336 334 333 333 333 332 332 333 335
305 304 304 304 304 305 305 306 305 303 306 306 307 307 309 308 308 309 308 307 307 307 307 309 310 312 312 313 313 314 315 317 322 328 331 333 333 332 333 332 333 332 334 334
307 306 307 306 306 306 306 307 306 305 303 306 307 307 308 309 310 309 308 308 307 308 308 310 311 314 316 313 314 315 315 317 319 325 329 332 333 331 331 331 333 334 332 332
308 307 308 307 306 307 307 308 308 307 303 304 306 308 308 308 308 309 308 308 308 308 309 311 312 313 313 314 315 315 315 316 318 321 324 328 329 327 328 332 338 334 335 335
308 308 308 307 306 307 309 309 308 308 305 306 307 307 308 308 308 309 308 308 309 311 312 313 315 315 314 314 314 316 316 316 317 319 322 326 323 324 330 331 326 326 328 329
309 308 307 306 307 309 309 309 309 308 307 307 308 308 307 308 308 308 308 308 307 308 311 312 311 312 312 313 314 314 314 317 318 318 320 325 319 320 319 320 322 323 322 322
307 308 310 310 310 309 309 310 309 308 306 306 307 310 310 309 308 308 308 307 307 307 307 307 309 311 312 312 312 313 314 314 316 316 317 319 317 317 317 317 318 318 318 319
310 311 312 311 310 309 309 309 309 308 306 306 310 310 310 310 309 308 307 306 306 307 306 307 309 310 309 312 312 312 312 313 314 315 316 316 315 315 316 316 316 317 317 317
312 313 311 312 310 310 310 309 307 307 307 308 309 310 309 308 308 307 307 307 307 307 306 306 308 307 308 309 310 311 311 312 314 316 315 315 316 315 316 317 316 316 317 317
313 311 312 310 310 310 311 310 309 307 306 307 309 310 310 309 308 308 307 305 304 305 303 303 304 305 305 309 309 308 308 308 308 310 309 311 312 312 314 316 316 317 317 317
312 311 312 310 310 311 311 310 309 307 306 307 310 313 311 310 309 307 306 305 304 303 301 300 300 302 304 305 308 307 307 309 308 308 307 309 310 311 313 314 315 316 316 316
311 311 312 312 312 311 311 308 307 306 307 306 309 314 314 311 311 308 306 304 302 302 302 302 300 301 301 305 306 309 310 313 316 317 317 314 316 314 313 312 313 315 316 317
312 312 314 313 313 313 311 309 309 307 308 308 311 312 317 313 312 310 306 305 306 303 304 306 303 303 308 308 311 311 310 313 315 318 318 317 316 314 314 313 313 314 315 316
315 316 315 316 314 312 312 312 311 311 312 311 313 311 315 314 314 313 313 308 314 313 314 310 313 311 310 310 311 311 309 314 316 315 315 314 314 313 312 312 314 314 314 315
318 319 319 315 315 314 314 320 318 319 318 316 314 317 318 315 316 316 315 319 317 322 315 315 313 311 311 310 311 310 310 310 313 315 315 316 315 314 313 314 315 316 317 317
315 316 317 317 317 319 320 318 319 320 323 319 320 321 317 319 316 316 319 321 319 315 313 314 312 313 311 311 310 310 310 310 310 312 313 314 314 314 315 317 316 316 316 317
320 320 319 319 318 320 320 321 320 321 318 317 318 321 317 322 320 321 321 318 319 315 315 314 313 312 311 310 310 309 309 309 311 310 311 311 311 311 312 313 313 314 314 314
319 318 317 319 318 318 318 317 317 316 316 317 319 320 321 319 319 317 317 319 315 315 315 314 313 311 311 310 309 308 307 308 309 311 310 310 310 310 311 312 312 312 312 312
318 318 321 318 317 317 316 315 315 314 316 317 318 320 319 318 317 315 315 316 315 314 314 313 312 311 310 310 309 308 307 306 306 308 310 310 311 309 309 309 309 310 312 311
318 317 318 317 317 316 314 313 313 312 314 315 318 317 317 316 315 314 314 315 314 314 313 312 311 311 311 309 308 308 306 305 304 305 308 310 308 309 309 308 307 307 308 308
318 318 317 317 316 315 314 313 312 313 314 316 316 315 315 314 312 313 311 311 310 309 310 311 311 310 308 308 307 307 306 304 304 303 306 307 309 308 308 308 307 306 306 308
Wind_Speed
27 29 32 35 36 40 39 16 7 20 16 20 10 9 12 13 17 16 15 13 18 11 17 18 14 17 15 32 24 17 19 23 20 27 29 31 28 27 25 13 22 16 14 11
27 28 30 32 34 34 34 19 25 11 22 9 12 16 17 18 11 17 10 19 14 15 13 15 10 16 29 42 26 12 12 14 19 26 24 30 32 30 27 21 17 20 15 11
27 28 28 28 31 29 28 12 8 16 19 21 18 18 17 15 15 10 16 30 13 16 16 15 7 15 16 38 32 17 6 8 20 19 21 18 29 30 28 28 17 16 18 7
27 27 28 27 27 26 15 11 6 14 8 15 20 22 19 18 14 4 8 16 4 23 11 16 5 13 22 23 28 17 7 13 17 25 23 23 28 26 30 30 21 22 18 19
26 26 26 26 26 23 13 6 5 7 20 21 18 17 15 18 16 17 16 17 7 19 16 12 13 15 13 11 19 19 17 8 13 19 22 19 22 32 30 29 29 22 24 17
26 26 26 25 23 16 11 10 13 9 8 16 10 11 19 21 22 14 18 11 16 19 13 18 21 19 19 18 22 18 13 11 9 16 17 21 20 13 25 26 24 25 20 17
28 27 26 24 22 15 13 14 14 4 5 10 11 16 21 21 22 19 16 21 18 19 25 22 21 24 23 21 18 17 11 13 9 10 13 17 13 10 14 12 24 23 18 15
29 27 26 24 22 16 15 16 16 6 4 11 18 17 17 24 26 17 19 14 20 15 22 14 13 16 12 17 18 15 11 10 7 5 8 8 12 14 18 13 10 11 21 17
28 28 26 24 22 17 17 18 19 16 4 6 7 20 16 13 11 14 11 8 12 15 5 12 15 4 11 12 18 12 11 10 7 9 7 11 5 17 8 10 12 13 9 2
27 26 24 23 21 17 15 21 19 14 7 19 10 6 8 10 11 10 13 19 18 18 0 8 10 6 11 3 17 13 11 8 10 10 6 3 9 19 11 9 6 18 25 9
26 24 23 23 20 15 15 19 15 17 10 27 22 13 17 17 15 6 16 10 10 9 4 4 6 4 5 5 4 4 7 12 11 11 14 12 20 13 9 8 16 20 22 25
25 25 24 23 20 15 13 16 12 7 22 13 19 23 23 23 19 16 6 14 15 6 5 5 5 12 8 10 8 6 6 6 7 7 11 14 21 16 16 15 11 14 15 16
25 24 26 25 18 11 10 11 12 7 14 23 15 6 10 3 9 10 13 9 5 6 12 10 5 7 9 10 9 16 18 23 11 13 16 19 18 17 14 16 15 13 13 15
26 28 27 16 10 6 3 4 5 6 1 3 6 6 7 7 5 7 9 10 12 11 11 7 3 5 14 9 15 15 15 21 18 20 18 21 25 25 24 22 22 20 18 18
28 21 10 12 9 7 7 4 4 1 3 3 9 8 3 6 11 6 5 6 9 7 1 1 2 5 5 9 8 11 17 17 13 15 31 29 31 34 27 24 26 24 21 23
20 7 10 10 11 10 4 1 4 6 2 3 3 7 2 8 12 8 6 6 6 1 1 1 4 5 2 3 4 18 24 32 37 35 43 46 42 40 35 31 29 25 23 23
6 5 12 10 8 9 5 1 2 6 2 3 5 4 4 10 5 7 6 4 2 2 2 2 2 3 4 2 3 20 43 44 46 46 46 42 46 40 35 31 27 27 29 27
5 5 9 8 9 9 6 9 4 4 1 2 2 3 2 6 3 2 2 2 3 2 3 3 2 2 2 4 20 32 44 38 18 22 27 41 35 31 35 34 31 27 27 27
7 5 4 8 6 2 4 3 7 4 1 3 1 1 2 3 2 0 3 3 1 2 2 2 2 1 4 18 32 39 53 38 24 15 15 21 34 36 25 25 27 32 29 26
6 4 2 1 3 6 3 3 3 2 0 1 3 1 2 3 2 2 3 5 2 1 0 3 2 3 28 36 38 42 55 48 33 25 19 14 2 15 17 20 21 24 29 31
3 2 2 5 4 3 1 2 3 4 3 4 7 6 4 2 2 2 3 2 3 1 3 2 5 6 23 37 37 44 50 58 50 38 33 31 8 5 6 12 16 17 23 35
3 1 2 5 3 2 2 4 3 2 3 7 9 3 3 3 4 4 5 3 1 5 4 4 4 8 28 31 36 40 42 47 54 52 48 46 46 37 29 28 24 24 22 25
2 1 1 2 3 6 5 6 4 4 7 17 21 3 4 5 8 6 3 5 4 3 4 4 5 21 26 28 32 34 38 40 39 51 50 42 44 46 46 44 42 39 35 35
2 2 4 1 1 3 2 6 8 17 20 22 14 7 3 5 3 3 3 3 5 4 4 2 7 20 24 24 28 32 36 37 39 33 38 42 41 39 35 32 34 35 34 37
4 2 1 4 9 11 15 16 16 20 20 20 14 6 6 5 4 4 4 3 3 2 2 3 13 16 18 23 24 25 28 31 30 31 28 30 27 35 35 37 38 33 30 34
3 4 6 11 13 15 17 19 19 20 21 20 5 5 4 5 3 4 6 3 3 4 3 8 12 15 15 20 22 22 22 26 26 25 24 19 24 23 23 29 31 33 33 35
2 3 11 11 12 14 17 19 19 18 16 7 6 7 5 4 4 4 4 4 6 11 7 8 8 13 16 16 17 18 21 20 22 22 17 19 16 21 21 21 22 29 30 29
Wind_Direction
346 347 348 350 353 350 359 335 308 321 339 308 327 338 347 327 319 316 313 306 301 345 326 313 310 294 291 323 321 294 238 229 244 247 213 208 211 215 211 217 218 241 264 275
341 343 345 346 347 355 348 325 309 344 342 313 336 336 329 328 321 333 344 305 317 312 301 299 285 321 322 310 322 352 352 237 229 242 249 191 212 209 221 218 224 221 240 245
335 338 340 342 343 353 348 315 317 337 332 348 336 336 318 313 323 3 352 300 330 314 315 295 273 326 314 318 304 322 293 261 250 225 231 207 193 214 210 226 210 225 223 166
329 332 334 337 340 344 356 328 339 336 313 327 324 311 304 310 311 258 224 291 87 300 317 320 288 309 321 324 325 322 269 260 253 255 237 232 193 209 214 211 225 213 224 220
328 330 330 333 334 341 333 297 344 330 299 292 312 311 328 315 323 326 315 324 81 279 315 313 312 323 304 298 319 333 337 281 273 264 259 270 266 199 212 215 220 223 233 226
326 327 326 327 329 338 322 296 298 297 277 293 291 292 322 318 315 316 302 265 295 305 309 307 294 281 260 260 286 313 325 342 308 252 251 253 249 241 204 217 210 220 221 234
322 321 322 321 322 317 298 288 290 235 266 297 282 293 300 308 304 300 305 302 299 310 310 295 291 272 253 249 264 277 297 303 301 276 277 242 243 247 249 254 219 213 220 233
320 318 319 318 316 311 299 288 274 244 263 276 292 297 292 301 310 303 283 283 293 275 289 304 295 283 229 242 238 247 272 283 297 272 244 231 242 230 217 236 235 213 215 223
321 316 318 316 315 312 300 289 282 240 267 249 279 311 303 308 308 305 328 315 309 298 306 283 264 286 318 202 225 223 229 246 278 293 269 224 276 232 239 229 228 328 287 301
318 315 316 315 314 311 297 288 286 239 227 273 281 284 289 300 322 306 335 340 319 287 317 296 283 288 328 298 200 186 203 243 237 241 263 290 357 347 358 200 37 11 18 357
315 318 318 314 314 315 300 290 287 258 245 269 279 287 279 278 285 290 318 323 3 337 359 317 347 5 309 295 22 3 203 190 224 244 244 236 51 358 38 43 46 32 27 26
322 322 322 315 314 317 297 285 294 287 239 258 275 288 276 261 269 283 301 300 324 330 5 357 331 312 303 348 304 206 215 218 282 259 249 308 349 353 4 2 22 22 15 13
328 329 323 317 319 310 278 270 286 272 245 280 281 305 342 257 261 253 268 299 342 348 345 317 318 306 335 321 318 351 330 321 325 282 271 288 306 310 319 324 329 332 327 329
330 331 327 329 333 329 251 277 296 257 258 294 12 26 352 349 299 259 245 268 291 317 342 344 314 321 350 323 320 312 312 315 308 302 289 295 287 287 294 299 299 297 299 302
335 339 4 358 14 76 79 39 30 32 241 319 309 343 31 337 338 318 259 268 277 293 66 260 305 312 321 312 300 283 304 309 300 291 302 304 296 301 306 300 275 275 278 277
344 15 17 37 82 98 119 151 331 1 316 313 317 9 8 336 341 341 352 320 280 303 79 233 245 238 247 288 278 282 293 288 280 278 280 281 280 280 277 283 287 284 276 276
13 69 41 50 76 60 35 21 247 311 6 348 314 20 355 356 6 42 36 24 63 274 266 232 239 239 200 265 260 305 304 290 275 269 263 267 266 256 259 260 266 275 276 276
84 102 49 58 55 48 52 29 53 105 59 39 11 320 330 7 15 81 61 67 345 297 297 298 260 311 226 257 311 332 337 334 316 265 261 244 263 259 247 246 253 263 269 273
80 86 60 47 30 2 288 2 25 73 108 129 78 303 303 353 31 42 159 159 204 271 287 261 166 334 28 324 333 349 349 338 336 332 317 295 244 239 239 235 241 243 252 259
82 32 1 139 320 318 338 38 19 35 240 258 229 194 277 317 33 254 190 198 203 245 88 171 30 42 7 356 4 4 4 19 34 25 14 7 95 201 216 227 239 247 248 255
16 243 42 317 325 344 296 351 25 342 289 217 230 228 303 256 297 291 232 318 206 32 76 22 4 3 2 1 10 15 19 21 26 35 41 50 54 166 205 229 248 262 265 261
358 43 105 343 310 290 340 11 354 329 292 320 301 327 232 233 195 227 213 254 141 61 67 25 360 4 1 4 10 16 17 23 29 28 37 44 51 54 62 79 63 66 56 79
318 335 250 354 51 28 21 346 312 296 301 305 301 69 316 227 222 245 332 12 69 33 55 0 6 355 6 10 11 16 18 21 25 32 38 43 44 51 54 55 58 62 55 62
314 10 356 46 264 314 299 309 332 341 334 315 353 79 266 285 65 0 31 45 36 48 16 353 324 1 359 15 16 16 16 18 20 29 37 39 50 57 62 68 65 62 54 55
19 82 233 349 328 354 7 359 343 348 327 327 319 35 338 33 58 24 23 38 52 63 313 279 330 2 7 9 12 15 20 14 15 15 28 43 42 51 54 56 59 61 62 66
23 17 10 359 5 3 2 356 354 349 337 330 60 49 23 31 46 19 15 33 355 322 263 338 352 4 6 14 7 5 15 17 9 15 21 32 44 51 52 54 57 59 61 65
194 1 19 10 20 1 360 358 358 349 3 3 6 27 53 15 51 27 15 335 314 343 357 6 357 11 3 4 359 355 10 11 11 11 21 25 46 51 52 50 49 53 55 58